TimeCDT,TemperatureF,Dew PointF,Humidity,Sea Level PressureIn,VisibilityMPH,Wind Direction,Wind SpeedMPH,Gust SpeedMPH,PrecipitationIn,Events,Conditions,WindDirDegrees,DateUTC
12:15 AM,66.2,37.4,35,29.63,10.0,SSW,20.7,25.3,N/A,,Scattered Clouds,200,2014-04-10 05:15:00
12:35 AM,67.3,37.4,33,29.64,10.0,SSW,20.7,-,N/A,,Scattered Clouds,210,2014-04-10 05:35:00
12:55 AM,66.7,37.0,33,29.62,10.0,SSW,15.0,-,N/A,,Clear,200,2014-04-10 05:55:00
1:15 AM,64.6,37.0,36,29.62,10.0,SSW,15.0,-,N/A,,Clear,200,2014-04-10 06:15:00
1:35 AM,62.8,37.4,39,29.62,10.0,SSW,11.5,-,N/A,,Clear,210,2014-04-10 06:35:00
1:55 AM,62.2,37.6,40,29.61,10.0,SW,13.8,-,N/A,,Clear,220,2014-04-10 06:55:00
2:15 AM,63.0,37.4,39,29.61,10.0,SW,12.7,-,N/A,,Clear,230,2014-04-10 07:15:00
2:35 AM,63.0,37.8,39,29.61,10.0,SW,15.0,-,N/A,,Clear,230,2014-04-10 07:35:00
2:55 AM,63.7,37.4,38,29.61,10.0,SW,11.5,-,N/A,,Clear,230,2014-04-10 07:55:00
3:15 AM,64.8,37.6,37,29.63,10.0,West,9.2,-,N/A,,Clear,260,2014-04-10 08:15:00
3:35 AM,65.3,37.8,36,29.67,10.0,West,11.5,-,N/A,,Scattered Clouds,270,2014-04-10 08:35:00
3:55 AM,65.3,37.4,36,29.66,10.0,West,16.1,-,N/A,,Scattered Clouds,260,2014-04-10 08:55:00
4:15 AM,64.4,36.5,36,29.66,10.0,West,18.4,24.2,N/A,,Clear,270,2014-04-10 09:15:00
4:35 AM,63.3,33.8,33,29.65,10.0,NW,21.9,26.5,N/A,,Clear,320,2014-04-10 09:35:00
4:55 AM,61.3,32.9,34,29.65,10.0,North,23.0,36.8,N/A,,Clear,350,2014-04-10 09:55:00
5:15 AM,61.2,33.8,36,29.68,10.0,North,33.4,40.3,N/A,,Clear,10,2014-04-10 10:15:00
5:35 AM,60.4,35.4,39,29.72,10.0,NNE,36.8,47.2,N/A,,Clear,20,2014-04-10 10:35:00
5:55 AM,59.2,35.4,41,29.74,10.0,NNE,28.8,35.7,N/A,,Clear,20,2014-04-10 10:55:00
6:15 AM,58.3,35.6,43,29.75,10.0,NNE,25.3,36.8,N/A,,Clear,20,2014-04-10 11:15:00
6:35 AM,57.4,35.2,43,29.76,10.0,NNE,23.0,34.5,N/A,,Clear,30,2014-04-10 11:35:00
6:55 AM,56.8,35.1,44,29.79,10.0,NNE,24.2,31.1,N/A,,Clear,30,2014-04-10 11:55:00
7:35 AM,54.9,36.0,49,29.83,10.0,NNE,13.8,-,N/A,,Clear,20,2014-04-10 12:35:00
7:55 AM,54.9,36.5,50,29.84,10.0,NNE,12.7,-,N/A,,Clear,20,2014-04-10 12:55:00
8:15 AM,55.8,36.9,49,29.87,10.0,NNE,12.7,-,N/A,,Clear,20,2014-04-10 13:15:00
8:35 AM,55.8,36.7,49,29.87,10.0,NNE,15.0,-,N/A,,Clear,20,2014-04-10 13:35:00
8:55 AM,55.6,35.6,47,29.87,10.0,NNE,17.3,20.7,N/A,,Clear,20,2014-04-10 13:55:00
9:15 AM,56.5,34.2,43,29.88,10.0,NNE,17.3,-,N/A,,Clear,20,2014-04-10 14:15:00
9:35 AM,58.1,33.3,39,29.88,10.0,NNE,17.3,-,N/A,,Clear,20,2014-04-10 14:35:00
9:55 AM,58.3,31.6,36,29.89,10.0,NNE,18.4,29.9,N/A,,Clear,30,2014-04-10 14:55:00
10:15 AM,57.9,31.1,36,29.89,10.0,NNE,23.0,28.8,N/A,,Clear,20,2014-04-10 15:15:00
10:35 AM,57.2,30.9,37,29.90,10.0,NE,18.4,28.8,N/A,,Clear,40,2014-04-10 15:35:00
10:55 AM,57.7,30.2,35,29.91,10.0,NNE,21.9,-,N/A,,Clear,20,2014-04-10 15:55:00
11:15 AM,57.7,29.1,34,29.94,10.0,NNE,15.0,21.9,N/A,,Clear,20,2014-04-10 16:15:00
11:35 AM,58.5,28.8,32,29.93,10.0,NNE,16.1,21.9,N/A,,Clear,30,2014-04-10 16:35:00
11:55 AM,59.5,28.8,31,29.94,10.0,NNE,19.6,23.0,N/A,,Clear,20,2014-04-10 16:55:00
12:15 PM,60.1,26.6,28,29.95,10.0,NNE,18.4,-,N/A,,Clear,30,2014-04-10 17:15:00
12:35 PM,61.0,26.8,27,29.96,10.0,NNE,12.7,21.9,N/A,,Clear,30,2014-04-10 17:35:00
12:55 PM,60.6,25.3,26,29.96,10.0,NNE,17.3,24.2,N/A,,Clear,20,2014-04-10 17:55:00
1:15 PM,60.8,24.8,25,29.96,10.0,North,12.7,-,N/A,,Clear,10,2014-04-10 18:15:00
1:35 PM,62.1,23.4,23,29.96,10.0,NNE,10.4,19.6,N/A,,Clear,20,2014-04-10 18:35:00
1:55 PM,62.4,23.2,22,29.96,10.0,NE,10.4,-,N/A,,Clear,40,2014-04-10 18:55:00
2:15 PM,62.8,20.5,20,29.95,10.0,NNE,12.7,-,N/A,,Clear,20,2014-04-10 19:15:00
2:35 PM,63.0,19.0,18,29.95,10.0,North,15.0,-,N/A,,Clear,10,2014-04-10 19:35:00
2:55 PM,64.6,18.1,17,29.95,10.0,NNE,12.7,20.7,N/A,,Clear,30,2014-04-10 19:55:00
3:15 PM,66.0,18.1,16,29.96,10.0,NE,13.8,19.6,N/A,,Clear,40,2014-04-10 20:15:00
3:35 PM,65.7,18.1,16,29.95,10.0,North,9.2,16.1,N/A,,Clear,360,2014-04-10 20:35:00
3:55 PM,66.2,19.4,17,29.94,10.0,NNE,12.7,-,N/A,,Clear,30,2014-04-10 20:55:00
4:15 PM,65.5,20.3,18,29.95,10.0,NE,4.6,-,N/A,,Clear,50,2014-04-10 21:15:00
4:35 PM,66.2,19.4,17,29.94,10.0,NE,9.2,-,N/A,,Clear,40,2014-04-10 21:35:00
4:55 PM,66.0,18.7,16,29.94,10.0,NE,9.2,-,N/A,,Clear,50,2014-04-10 21:55:00
5:15 PM,65.8,18.1,16,29.95,10.0,NNW,8.1,-,N/A,,Clear,340,2014-04-10 22:15:00
5:55 PM,65.7,18.9,17,29.96,10.0,NW,3.5,-,N/A,,Clear,320,2014-04-10 22:55:00
6:15 PM,66.0,18.7,16,29.95,10.0,NNE,6.9,-,N/A,,Clear,20,2014-04-10 23:15:00
6:35 PM,65.1,18.3,17,29.96,10.0,NE,6.9,-,N/A,,Clear,50,2014-04-10 23:35:00
6:55 PM,64.8,16.9,16,29.96,10.0,North,3.5,-,N/A,,Clear,10,2014-04-10 23:55:00
7:15 PM,63.5,17.1,17,29.96,10.0,Calm,Calm,-,N/A,,Clear,0,2014-04-11 00:15:00
7:35 PM,62.1,16.0,17,29.96,10.0,North,3.5,-,N/A,,Clear,350,2014-04-11 00:35:00
7:55 PM,61.7,15.6,17,29.97,10.0,Calm,Calm,-,N/A,,Clear,0,2014-04-11 00:55:00
8:15 PM,61.3,15.3,17,29.97,10.0,Calm,Calm,-,N/A,,Clear,0,2014-04-11 01:15:00
8:35 PM,60.3,15.3,17,29.98,10.0,Calm,Calm,-,N/A,,Clear,0,2014-04-11 01:35:00
8:55 PM,56.5,16.9,21,29.99,10.0,Calm,Calm,-,N/A,,Clear,0,2014-04-11 01:55:00
9:15 PM,55.9,16.3,21,29.99,10.0,Calm,Calm,-,N/A,,Clear,0,2014-04-11 02:15:00
9:55 PM,59.2,15.3,18,30.01,10.0,Calm,Calm,-,N/A,,Clear,0,2014-04-11 02:55:00
10:15 PM,59.0,14.5,18,30.01,10.0,Calm,Calm,-,N/A,,Clear,0,2014-04-11 03:15:00
10:35 PM,59.2,14.5,17,30.01,10.0,Calm,Calm,-,N/A,,Clear,0,2014-04-11 03:35:00
10:55 PM,57.9,14.2,18,30.00,10.0,South,3.5,-,N/A,,Clear,170,2014-04-11 03:55:00
11:15 PM,52.5,16.7,24,30.01,10.0,South,4.6,-,N/A,,Clear,180,2014-04-11 04:15:00
11:35 PM,54.1,15.6,22,30.01,10.0,SSW,3.5,-,N/A,,Clear,200,2014-04-11 04:35:00
11:55 PM,54.5,16.3,22,30.01,10.0,SSW,4.6,-,N/A,,Clear,210,2014-04-11 04:55:00